logo
App data

Instant Dungeon!

Instant Dungeon! mixes dungeon exploration with arcade action in the vein of the classic maze games from the 80s. Let Instant Dungeon! create a new dungeon just for you, complete with glittering treasures, vicious monsters, brutal boss battles, wild power ups and most importantly fun, Fun, FUN!
Store | Hub | SteamDB | Site
Developer: With The Love Studios Publisher: Flying Interactive
Genre: Action, Indie
Languages: English
Tags: Indie (35), Action (34), Action Roguelike (25), Arcade (18), Retro (18), Great Soundtrack (12), Rogue-like (11), Dungeon Crawler (6)
Category: Single-player, Steam Achievements, Full controller support, Steam Trading Cards, Stats, Steam Leaderboards
Release date: Nov 25, 2014
Price: $1.99
Old userscore: 87% Owners: 0 .. 20,000
Followers: 693
Peak concurrent players yesterday: 2

Steam Spy is still in beta, so expect major bugs.

Owners data:

Access restricted.

This feature is only available to users with special access rights. Sorry.

If you want to proceed, you need to register or log in first and then back Steam Spy on Patreon. Look for Indie or Pro pledge.

Don't forget to use the same email as on Steam Spy!

If you've recently backed Steam Spy on Patreon, please note, that it might take around 15 minutes for your access rights to sync. In most cases you'll need to re-login on Steam Spy too.

Audience in 2 weeks:

Access restricted.

This feature is only available to users with special access rights. Sorry.

If you want to proceed, you need to register or log in first and then back Steam Spy on Patreon. Look for Indie or Pro pledge.

Don't forget to use the same email as on Steam Spy!

If you've recently backed Steam Spy on Patreon, please note, that it might take around 15 minutes for your access rights to sync. In most cases you'll need to re-login on Steam Spy too.

Peak daily concurrent players:

CCU data courtesy of SteamDB. Used with permission.

Hourly concurrent players:

Followers over time

Access restricted.

This feature is only available to users with special access rights. Sorry.

If you want to proceed, you need to register or log in first and then back Steam Spy on Patreon. Look for Indie or Pro pledge.

Don't forget to use the same email as on Steam Spy!

If you've recently backed Steam Spy on Patreon, please note, that it might take around 15 minutes for your access rights to sync. In most cases you'll need to re-login on Steam Spy too.

Views for top 50 videos on YouTube for this game:

Games similar to this one:

# Game Release date
Price
Score rank
(Userscore / Metascore)
Owners
Players
Playtime (Median)
1 A Druid's Duel Feb 25, 2015 $7.99N/A (N/A/70%)0 .. 20,0000%00:00 (00:00)
2 Super Galaxy Squadron EX Turbo Mar 6, 2017 $9.99N/A (N/A)50,000 .. 100,0000%00:00 (00:00)
3 Three Fourths Home: Extended Edition Mar 20, 2015 $4.99N/A (N/A/77%)20,000 .. 50,0000%00:00 (00:00)
4 Disillusions Manga Horror Apr 6, 2013 $0.99N/A (N/A)20,000 .. 50,0000%00:00 (00:00)
5 It came from space and ate our brains Mar 19, 2015 $14.99N/A (N/A)200,000 .. 500,0000%00:00 (00:00)
6 Ukrainian Ninja Dec 23, 2014 FreeN/A (N/A)20,000 .. 50,0000%00:00 (00:00)
7 Super Treasure Arena Dec 24, 2018 $7.99N/A (N/A)0 .. 20,0000%00:00 (00:00)
8 Bermuda Mar 17, 2015 $2.99N/A (N/A)50,000 .. 100,0000%00:00 (00:00)
9 Dwarf Tower May 5, 2014 $0.99N/A (N/A)20,000 .. 50,0000%00:00 (00:00)
10 NEO AQUARIUM - The King of Crustaceans - Jun 8, 2015 $8.99N/A (N/A)50,000 .. 100,0000%00:00 (00:00)
11 Cherry Tree High I! My! Girls! Nov 20, 2014 $3.99N/A (N/A)20,000 .. 50,0000%00:00 (00:00)
12 Master Spy Sep 8, 2015 $9.99N/A (N/A/68%)50,000 .. 100,0000%00:00 (00:00)
13 Disorder Jan 12, 2015 $3.99N/A (N/A/61%)20,000 .. 50,0000%00:00 (00:00)
14 Cavern Kings Sep 30, 2014 $4.99N/A (N/A)50,000 .. 100,0000%00:00 (00:00)
15 The Sun and Moon Nov 14, 2014 $6.99N/A (N/A)20,000 .. 50,0000%00:00 (00:00)
16 ONE DAY for Ched Sep 12, 2014 $3.99N/A (N/A)20,000 .. 50,0008.33%00:53 (00:17)
17 Chariot Nov 12, 2014 $14.99N/A (N/A/76%)100,000 .. 200,0000%00:00 (00:00)
18 Polyball Dec 1, 2017 $14.99N/A (N/A)100,000 .. 200,0000.61%335:39 (111:53)
19 Old Man's Journey May 17, 2017 $7.99N/A (N/A/76%)100,000 .. 200,0000%00:00 (00:00)
20 Boogeyman 2 Feb 7, 2017 $4.99N/A (N/A)20,000 .. 50,0000%00:00 (00:00)
21 Ben and Ed - Blood Party Feb 13, 2018 $14.99N/A (N/A)100,000 .. 200,0009.09%03:37 (01:12)
22 Mini Thief Oct 12, 2018 $3.99N/A (N/A)50,000 .. 100,0000%00:00 (00:00)
23 Evertown Jan 30, 2020 $1.99N/A (N/A)0 .. 20,0000%00:00 (00:00)
24 I and Me May 4, 2016 $9.99N/A (N/A)0 .. 20,0000%00:00 (00:00)
25 1979 Revolution: Black Friday Apr 4, 2016 $9.99N/A (N/A/80%)50,000 .. 100,0000%00:00 (00:00)
26 Season of 12 Colors Mar 14, 2016 $2.99N/A (N/A)50,000 .. 100,0000%00:00 (00:00)
27 Velocibox Sep 8, 2014 $4.99N/A (N/A)50,000 .. 100,0000%00:00 (00:00)
28 Vernon's Legacy Sep 23, 2016 $11.99N/A (N/A)0 .. 20,0000%00:00 (00:00)
29 Lumini Sep 3, 2015 $12.99N/A (N/A/69%)0 .. 20,0000%00:00 (00:00)
30 Spellsworn Mar 13, 2018 FreeN/A (N/A)200,000 .. 500,0000%00:00 (00:00)
31 Choice Chamber Jul 16, 2015 $9.99N/A (N/A)20,000 .. 50,0000%00:00 (00:00)
32 Canabalt Apr 30, 2015 $2.99N/A (N/A)20,000 .. 50,0000%00:00 (00:00)
33 One More Line Aug 25, 2015 $2.99N/A (N/A)20,000 .. 50,0000%00:00 (00:00)
34 Beyond Eyes Aug 11, 2015 $14.99N/A (N/A/60%)100,000 .. 200,0000%00:00 (00:00)
35 Party of Sin Dec 13, 2012 $5.99N/A (N/A)50,000 .. 100,0000%00:00 (00:00)
36 Montague's Mount Nov 19, 2013 $4.99N/A (N/A/39%)20,000 .. 50,0000%00:00 (00:00)
37 Escape Goat Jun 14, 2012 $4.99N/A (N/A)20,000 .. 50,0000%00:00 (00:00)
38 The Novelist Dec 10, 2013 $4.99N/A (N/A/66%)100,000 .. 200,0000%00:00 (00:00)
39 Super Puzzle Platformer Deluxe May 24, 2013 $7.99N/A (N/A)20,000 .. 50,0000%00:00 (00:00)
40 Rush Bros. May 24, 2013 $9.99N/A (N/A)100,000 .. 200,0000%00:00 (00:00)
41 Bad Hotel Oct 16, 2013 $4.99N/A (N/A)50,000 .. 100,0000%00:00 (00:00)
42 Retro/Grade Mar 20, 2013 $9.99N/A (N/A)50,000 .. 100,0000%00:00 (00:00)
43 Ultratron Mar 18, 2013 $9.99N/A (N/A)100,000 .. 200,0000%00:00 (00:00)
44 Ballpoint Universe - Infinite Dec 17, 2013 $3.99N/A (N/A)50,000 .. 100,0000%00:00 (00:00)
45 Sugar Cube: Bittersweet Factory Nov 7, 2012 $6.99N/A (N/A)20,000 .. 50,0000%00:00 (00:00)
46 Unmechanical Aug 8, 2012 $9.99N/A (N/A/74%)100,000 .. 200,0000%00:00 (00:00)
47 Lumino City Dec 2, 2014 $12.99N/A (N/A/70%)200,000 .. 500,0000%00:00 (00:00)
48 Titan Attacks! Feb 3, 2012 $9.99N/A (N/A)50,000 .. 100,0000%00:00 (00:00)
49 Really Big Sky Feb 24, 2012 $4.99N/A (N/A)500,000 .. 1,000,0000%00:00 (00:00)
50 Critter Crunch Sep 11, 2012 $6.99N/A (N/A)20,000 .. 50,0000%00:00 (00:00)
51 Madballs in Babo:Invasion Sep 17, 2009 $4.99N/A (N/A/79%)50,000 .. 100,0000%00:00 (00:00)
52 The Wonderful End of the World Jul 17, 2008 $9.99N/A (N/A/69%)100,000 .. 200,0000%00:00 (00:00)
53 NaissanceE Feb 13, 2014 FreeN/A (N/A/66%)100,000 .. 200,0000%00:00 (00:00)
54 //N.P.P.D. RUSH//- The milk of Ultraviolet Feb 13, 2014 $3.99N/A (N/A)100,000 .. 200,0000%00:00 (00:00)
55 RONIN Jun 30, 2015 $12.99N/A (N/A/70%)100,000 .. 200,0000%00:00 (00:00)
56 Canyon Capers Apr 25, 2014 $6.99N/A (N/A)200,000 .. 500,0000%00:00 (00:00)
57 Rabbit Hole 3D: Steam Edition Apr 25, 2014 $2.99N/A (N/A)20,000 .. 50,0000%00:00 (00:00)
58 ReignMaker Apr 16, 2014 $14.99N/A (N/A)50,000 .. 100,0000%00:00 (00:00)
59 Actual Sunlight Apr 3, 2014 $4.99N/A (N/A/77%)50,000 .. 100,0000%00:00 (00:00)
60 Volt Apr 14, 2014 $0.99N/A (N/A)100,000 .. 200,0000%00:00 (00:00)
61 Three Dead Zed Jul 7, 2014 $5.99N/A (N/A)50,000 .. 100,0000%00:00 (00:00)
62 Chicken Invaders 4 Jun 6, 2014 $4.99N/A (N/A)20,000 .. 50,0000%00:00 (00:00)
63 Rhythm Destruction Jun 16, 2014 $4.99N/A (N/A)50,000 .. 100,0000%00:00 (00:00)
64 Team Indie Oct 8, 2014 N/AN/A (N/A)50,000 .. 100,0000%00:00 (00:00)
65 Mega Coin Squad Aug 15, 2014 $14.99N/A (N/A/56%)0 .. 20,0000%00:00 (00:00)
66 OTTTD Aug 6, 2014 $7.99N/A (N/A)0 .. 20,0000%00:00 (00:00)
67 The Masterplan Jun 4, 2015 $19.99N/A (N/A/68%)50,000 .. 100,0000%00:00 (00:00)

Tags over time:

Access restricted.

This feature is only available to users with special access rights. Sorry.

If you want to proceed, you need to register or log in first and then back Steam Spy on Patreon. Look for Indie or Pro pledge.

Don't forget to use the same email as on Steam Spy!

If you've recently backed Steam Spy on Patreon, please note, that it might take around 15 minutes for your access rights to sync. In most cases you'll need to re-login on Steam Spy too.

Owners of this game also own:

Access restricted.

This feature is only available to users with special access rights. Sorry.

If you want to proceed, you need to register or log in first and then back Steam Spy on Patreon. Look for Indie or Pro pledge.

Don't forget to use the same email as on Steam Spy!

If you've recently backed Steam Spy on Patreon, please note, that it might take around 15 minutes for your access rights to sync. In most cases you'll need to re-login on Steam Spy too.

Playtime distribution:

Access restricted.

This feature is only available to users with special access rights. Sorry.

If you want to proceed, you need to register or log in first and then back Steam Spy on Patreon. Look for Indie or Pro pledge.

Don't forget to use the same email as on Steam Spy!

If you've recently backed Steam Spy on Patreon, please note, that it might take around 15 minutes for your access rights to sync. In most cases you'll need to re-login on Steam Spy too.

Playtime (2 weeks):

Access restricted.

This feature is only available to users with special access rights. Sorry.

If you want to proceed, you need to register or log in first and then back Steam Spy on Patreon. Look for Indie or Pro pledge.

Don't forget to use the same email as on Steam Spy!

If you've recently backed Steam Spy on Patreon, please note, that it might take around 15 minutes for your access rights to sync. In most cases you'll need to re-login on Steam Spy too.

User reviews:

Login required.

Please register or log in to see this information.